| time (UTC) | temp C | wind direction | speed KPH | gust KPH | rain 1hr cm | rain 24hr cm | rain mn cm | humidity % | barometer mb |
| 20260507161552 | 17 | 280 | 4.8 | 9.7 | 0.00 | 0.00 | 0.00 | 83 | 1016.6 |
| 20260507160110 | 17 | 330 | 3.2 | 12.9 | 0.00 | 0.00 | 0.00 | 83 | 1016.6 |
| 20260507154544 | 17 | 265 | 0.0 | 6.4 | 0.00 | 0.00 | 0.00 | 84 | 1016.6 |
| 20260507153041 | 17 | 290 | 1.6 | 6.4 | 0.00 | 0.00 | 0.00 | 85 | 1016.6 |
| 20260507151539 | 17 | 313 | 0.0 | 6.4 | 0.00 | 0.00 | 0.00 | 85 | 1016.6 |
| 20260507150038 | 16 | 296 | 1.6 | 8.0 | 0.00 | 0.00 | 0.00 | 86 | 1016.5 |
| 20260507144535 | 16 | 259 | 3.2 | 6.4 | 0.00 | 0.00 | 0.00 | 86 | 1016.4 |
| 20260507143031 | 16 | 256 | 3.2 | 9.7 | 0.00 | 0.00 | 0.00 | 86 | 1016.4 |
| 20260507141531 | 16 | 269 | 1.6 | 4.8 | 0.00 | 0.00 | 0.00 | 87 | 1016.2 |
| 20260507140037 | 16 | 269 | 0.0 | 4.8 | 0.00 | 0.00 | 0.00 | 87 | 1016.1 |
| 20260507134525 | 16 | 282 | 3.2 | 8.0 | 0.00 | 0.00 | 0.00 | 87 | 1016.0 |
| 20260507133022 | 16 | 315 | 3.2 | 8.0 | 0.00 | 0.00 | 0.00 | 87 | 1015.9 |
| 20260507131534 | 16 | 281 | 1.6 | 6.4 | 0.00 | 0.00 | 0.00 | 87 | 1015.9 |
| 20260507130020 | 16 | 321 | 3.2 | 12.9 | 0.00 | 0.00 | 0.00 | 87 | 1015.8 |
| 20260507124522 | 16 | 263 | 1.6 | 6.4 | 0.00 | 0.00 | 0.00 | 87 | 1015.7 |
| 20260507123025 | 16 | 309 | 0.0 | 6.4 | 0.00 | 0.00 | 0.00 | 87 | 1015.6 |
| 20260507121518 | 16 | 315 | 3.2 | 6.4 | 0.00 | 0.00 | 0.00 | 87 | 1015.6 |
| 20260507120028 | 16 | 306 | 0.0 | 4.8 | 0.00 | 0.00 | 0.00 | 86 | 1015.6 |
| 20260507114516 | 16 | 305 | 3.2 | 6.4 | 0.00 | 0.00 | 0.00 | 86 | 1015.6 |
| 20260507113031 | 16 | 296 | 3.2 | 11.3 | 0.00 | 0.00 | 0.00 | 86 | 1015.6 |
| 20260507111515 | 16 | 323 | 1.6 | 4.8 | 0.00 | 0.00 | 0.00 | 86 | 1015.6 |
| 20260507110013 | 16 | 300 | 1.6 | 9.7 | 0.00 | 0.00 | 0.00 | 86 | 1015.7 |
| 20260507104518 | 16 | 339 | 1.6 | 8.0 | 0.00 | 0.00 | 0.00 | 87 | 1015.7 |
| 20260507103010 | 16 | 302 | 6.4 | 14.5 | 0.00 | 0.00 | 0.00 | 87 | 1015.9 |
| 20260507101516 | 16 | 297 | 1.6 | 12.9 | 0.00 | 0.00 | 0.00 | 87 | 1016.0 |
| 20260507100022 | 16 | 337 | 1.6 | 6.4 | 0.00 | 0.00 | 0.00 | 87 | 1016.1 |
| 20260507094508 | 16 | 312 | 3.2 | 6.4 | 0.00 | 0.00 | 0.00 | 87 | 1016.1 |
| 20260507093005 | 16 | 302 | 3.2 | 8.0 | 0.00 | 0.00 | 0.00 | 87 | 1016.3 |
| 20260507091504 | 16 | 309 | 3.2 | 6.4 | 0.00 | 0.00 | 0.00 | 87 | 1016.3 |
| 20260507090006 | 16 | 324 | 1.6 | 6.4 | 0.00 | 0.00 | 0.00 | 87 | 1016.4 |
| 20260507084502 | 16 | 304 | 1.6 | 6.4 | 0.00 | 0.00 | 0.00 | 87 | 1016.7 |
| 20260507083056 | 16 | 296 | 1.6 | 8.0 | 0.00 | 0.00 | 0.00 | 87 | 1016.7 |
| 20260507081554 | 16 | 309 | 3.2 | 8.0 | 0.00 | 0.00 | 0.00 | 87 | 1016.9 |
| 20260507080055 | 16 | 292 | 3.2 | 8.0 | 0.00 | 0.00 | 0.00 | 87 | 1016.9 |
| 20260507074552 | 16 | 333 | 3.2 | 8.0 | 0.00 | 0.00 | 0.00 | 86 | 1016.9 |
| 20260507073056 | 16 | 315 | 3.2 | 8.0 | 0.00 | 0.00 | 0.00 | 86 | 1017.1 |
| 20260507071549 | 16 | 314 | 1.6 | 4.8 | 0.00 | 0.00 | 0.00 | 86 | 1017.0 |
| 20260507064548 | 16 | 331 | 3.2 | 6.4 | 0.00 | 0.00 | 0.00 | 86 | 1017.2 |
| 20260507063052 | 16 | 297 | 1.6 | 4.8 | 0.00 | 0.00 | 0.00 | 86 | 1017.3 |
| 20260507061546 | 16 | 315 | 3.2 | 8.0 | 0.00 | 0.00 | 0.00 | 86 | 1017.2 |
| 20260507060046 | 16 | 335 | 3.2 | 6.4 | 0.00 | 0.00 | 0.00 | 86 | 1017.3 |
| 20260507054545 | 16 | 334 | 3.2 | 9.7 | 0.00 | 0.00 | 0.00 | 86 | 1017.1 |
| 20260507053044 | 16 | 328 | 6.4 | 12.9 | 0.00 | 0.00 | 0.00 | 86 | 1017.1 |
| 20260507051545 | 16 | 316 | 4.8 | 11.3 | 0.00 | 0.00 | 0.00 | 86 | 1017.2 |
| 20260507044551 | 16 | 331 | 4.8 | 8.0 | 0.00 | 0.00 | 0.00 | 86 | 1017.2 |
| 20260507043041 | 16 | 335 | 3.2 | 9.7 | 0.00 | 0.00 | 0.00 | 86 | 1017.0 |
| 20260507041544 | 16 | 319 | 3.2 | 12.9 | 0.00 | 0.00 | 0.00 | 86 | 1017.0 |
| 20260507040040 | 16 | 295 | 4.8 | 12.9 | 0.00 | 0.00 | 0.00 | 85 | 1016.9 |
| 20260507034542 | 17 | 309 | 3.2 | 12.9 | 0.00 | 0.00 | 0.00 | 85 | 1016.8 |
| 20260507033042 | 17 | 296 | 6.4 | 14.5 | 0.00 | 0.00 | 0.00 | 85 | 1016.7 |
| 20260507031538 | 17 | 300 | 4.8 | 9.7 | 0.00 | 0.00 | 0.00 | 84 | 1016.6 |
| 20260507030038 | 17 | 299 | 6.4 | 14.5 | 0.00 | 0.00 | 0.00 | 83 | 1016.5 |
| 20260507024543 | 17 | 304 | 3.2 | 12.9 | 0.00 | 0.00 | 0.00 | 82 | 1016.4 |
| 20260507023037 | 17 | 292 | 4.8 | 14.5 | 0.00 | 0.00 | 0.00 | 81 | 1016.3 |
| 20260507021547 | 18 | 299 | 3.2 | 14.5 | 0.00 | 0.00 | 0.00 | 80 | 1016.2 |
| 20260507020035 | 18 | 292 | 8.0 | 16.1 | 0.00 | 0.00 | 0.00 | 79 | 1016.1 |
| 20260507014532 | 18 | 298 | 6.4 | 17.7 | 0.00 | 0.00 | 0.00 | 78 | 1016.1 |
| 20260507013035 | 19 | 328 | 6.4 | 16.1 | 0.00 | 0.00 | 0.00 | 78 | 1016.0 |
| 20260507011536 | 19 | 306 | 4.8 | 19.3 | 0.00 | 0.00 | 0.00 | 77 | 1016.0 |
| 20260507010040 | 19 | 300 | 4.8 | 17.7 | 0.00 | 0.00 | 0.00 | 77 | 1016.0 |
| 20260507004529 | 20 | 310 | 4.8 | 17.7 | 0.00 | 0.00 | 0.00 | 76 | 1016.0 |
| 20260507003029 | 20 | 298 | 8.0 | 16.1 | 0.00 | 0.00 | 0.00 | 76 | 1016.0 |
| 20260507001530 | 20 | 289 | 8.0 | 16.1 | 0.00 | 0.00 | 0.00 | 75 | 1015.9 |
| 20260507000033 | 20 | 267 | 6.4 | 16.1 | 0.00 | 0.00 | 0.00 | 75 | 1015.8 |
| 20260506234527 | 20 | 301 | 8.0 | 16.1 | 0.00 | 0.00 | 0.00 | 74 | 1015.8 |
| 20260506233026 | 20 | 270 | 8.0 | 17.7 | 0.00 | 0.00 | 0.00 | 73 | 1015.8 |
| 20260506231527 | 20 | 307 | 9.7 | 16.1 | 0.00 | 0.00 | 0.00 | 72 | 1015.9 |
| 20260506230025 | 20 | 263 | 8.0 | 19.3 | 0.00 | 0.00 | 0.00 | 71 | 1016.0 |
| 20260506224522 | 21 | 300 | 8.0 | 16.1 | 0.00 | 0.00 | 0.00 | 70 | 1016.1 |
| 20260506223020 | 21 | 294 | 6.4 | 16.1 | 0.00 | 0.00 | 0.00 | 70 | 1016.3 |
| 20260506221518 | 21 | 286 | 8.0 | 19.3 | 0.00 | 0.00 | 0.00 | 69 | 1016.3 |
| 20260506220116 | 21 | 290 | 8.0 | 19.3 | 0.00 | 0.00 | 0.00 | 69 | 1016.5 |
| 20260506214515 | 21 | 280 | 9.7 | 17.7 | 0.00 | 0.00 | 0.00 | 69 | 1016.6 |
| 20260506213013 | 21 | 248 | 8.0 | 19.3 | 0.00 | 0.00 | 0.00 | 69 | 1016.7 |
| 20260506211512 | 21 | 329 | 9.7 | 22.5 | 0.00 | 0.00 | 0.00 | 68 | 1016.7 |
| 20260506210011 | 21 | 317 | 11.3 | 19.3 | 0.00 | 0.00 | 0.00 | 66 | 1016.8 |
| 20260506204511 | 22 | 275 | 9.7 | 22.5 | 0.00 | 0.00 | 0.00 | 64 | 1016.9 |
| 20260506203019 | 22 | 307 | 4.8 | 16.1 | 0.00 | 0.00 | 0.00 | 65 | 1017.1 |
| 20260506201510 | 22 | 306 | 4.8 | 17.7 | 0.00 | 0.00 | 0.00 | 66 | 1017.1 |
| 20260506200008 | 22 | 294 | 8.0 | 17.7 | 0.00 | 0.00 | 0.00 | 64 | 1017.3 |
| 20260506194507 | 21 | 269 | 8.0 | 16.1 | 0.00 | 0.00 | 0.00 | 66 | 1017.5 |
| 20260506193002 | 21 | 266 | 8.0 | 16.1 | 0.00 | 0.00 | 0.00 | 66 | 1017.6 |
| 20260506191600 | 21 | 270 | 4.8 | 14.5 | 0.00 | 0.00 | 0.00 | 67 | 1017.7 |
| 20260506190100 | 21 | 273 | 4.8 | 11.3 | 0.00 | 0.00 | 0.00 | 66 | 1017.8 |
| 20260506184604 | 21 | 298 | 3.2 | 14.5 | 0.00 | 0.00 | 0.00 | 67 | 1017.9 |
| 20260506183102 | 21 | 282 | 4.8 | 16.1 | 0.00 | 0.00 | 0.00 | 65 | 1018.0 |
| 20260506181555 | 21 | 299 | 4.8 | 12.9 | 0.00 | 0.00 | 0.00 | 65 | 1018.1 |
| 20260506180044 | 21 | 277 | 4.8 | 9.7 | 0.00 | 0.00 | 0.00 | 64 | 1018.1 |
| 20260506174540 | 21 | 299 | 4.8 | 12.9 | 0.00 | 0.00 | 0.00 | 65 | 1018.3 |
| 20260506173037 | 21 | 296 | 6.4 | 12.9 | 0.00 | 0.00 | 0.00 | 65 | 1018.3 |
| 20260506171541 | 21 | 314 | 4.8 | 9.7 | 0.00 | 0.00 | 0.00 | 66 | 1018.4 |
| 20260506170034 | 20 | 254 | 3.2 | 9.7 | 0.00 | 0.00 | 0.00 | 68 | 1018.4 |
| 20260506164525 | 19 | 267 | 4.8 | 9.7 | 0.00 | 0.00 | 0.00 | 69 | 1018.4 |
| 20260506163023 | 18 | 302 | 0.0 | 0.0 | 0.00 | 0.00 | 0.00 | 73 | 1018.3 |